Regional Weather Roundup
Issued by NWS Kansas City/Pleasant Hill, MO

Home | Current Version | Previous Version | Text Only | Print | Product List | Glossary On
Versions: 1 2 3 4 5 6 7 8 9 10 11 12 13 14 15 16 17 18 19 20 21 22 23 24 25 26 27 28 29 30 31 32 33 34 35 36 37 38 39 40 41 42 43 44 45 46 47 48 49 50
000
ASUS43 KEAX 312211
RWREAX

WEATHER ROUNDUP FOR EASTERN KANSAS AND NORTHWEST MISSOURI
NATIONAL WEATHER SERVICE KANSAS CITY/PLEASANT HILL MO
400 PM CST SAT JAN 31 2015

KSZ040-057-103>105-MOZ028-029-037-043-312300-
...KANSAS CITY METROPOLITAN AREA...

CITY           SKY/WX    TMP DP  RH WIND       PRES   REMARKS
K.C. INTL      LGT RAIN  37  35  92 S13       30.04F FOG     WCI  29
K.C. DOWNTOWN  LGT RAIN  39  35  86 SE6       30.06F WCI  35
LEES SUMMIT    LGT RAIN  37  34  89 S8        30.06F WCI  31
OLATHE - IXD   LGT RAIN  36  35  96 SE13      30.04F FOG     WCI  27
OLATHE - OJC   LGT RAIN  36  35  96 S8        30.04F FOG     WCI  30
LAWRENCE       LGT RAIN  35  34  96 SE8       30.03F FOG     WCI  29

$$

MOZ001>008-011>017-020>025-030>033-038>040-044>046-053-054-312300-
...NORTHERN AND CENTRAL MISSOURI...

CITY           SKY/WX    TMP DP  RH WIND       PRES   REMARKS
ST. JOSEPH     LGT RAIN  37  35  92 S12       30.05F FOG     WCI  29
MOSBY          DRIZZLE   37  36  93 SE8       30.07F WCI  31
WARRENSBURG    CLOUDY    39  36  87 S3        30.08F
WHITEMAN AFB   DRIZZLE   39  36  87 SE7G17    30.09F WCI  34
CLINTON        CLOUDY    43  36  75 E6        30.07F
SEDALIA        CLOUDY    39  36  89 SE12      30.11F WCI  32
WARSAW         NOT AVBL
MARSHALL       CLOUDY    41  39  93 SE13      30.14F FOG     WCI  34
CHILLICOTHE      N/A     34  32  92 SE5       30.12F WCI  30
MOBERLY        HVY RAIN  37  32  81 S10       30.16F WCI  30
KIRKSVILLE     LGT RAIN  37  37 100 S9        30.14F FOG     WCI  30

$$

MOZ041-047>049-056>058-063>065-088>090-097-312300-
...EASTERN AND SOUTHERN MISSOURI...

CITY           SKY/WX    TMP DP  RH WIND       PRES   REMARKS
ST. LOUIS INTL CLOUDY    46  26  45 S3        30.21F
SPIRIT OF STL  CLOUDY    46  24  42 S5        30.21F
COLUMBIA       LGT RAIN  36  35  96 E13       30.14F WCI  27
JEFFERSON CITY LGT RAIN  38  35  89 E9        30.16F WCI  31
MEXICO         LGT RAIN  37  36  93 S9        30.19F WCI  31
HANNIBAL       LGT SNOW  37  36  93 S5        30.18S WCI  34
ROLLA          CLOUDY    37  31  78 E8        30.14S WCI  31
LEBANON        CLOUDY    43  21  42 SE8       30.09F
OSAGE BEACH    CLOUDY    39  30  70 E8        30.13F WCI  34
SPRINGFIELD    CLOUDY    45  21  38 SE16G22   30.07F
BRANSON        CLOUDY    46  23  39 SE14      30.10F
NEVADA         CLOUDY    43  32  65 SE5       30.05F
JOPLIN         LGT RAIN  47  24  40 S8        30.05F
WEST PLAINS    CLOUDY    44  19  36 SE8       30.15F

$$

IAZ060-094-KSZ022-034>040-054-083-096-NEZ052-066-093-312300-
...KANSAS...SOUTHEAST NEBRASKA AND IOWA...

CITY           SKY/WX    TMP DP  RH WIND       PRES   REMARKS
TOPEKA         LGT RAIN  35  34  96 E8        30.01F FOG     WCI  29
MANHATTAN      LGT RAIN  36  35  96 E7        29.95F FOG     WCI  30
EMPORIA        LGT RAIN  37  37 100 S12       29.98F FOG     WCI  29
CHANUTE        LGT RAIN  39  36  89 SE10      30.00F WCI  32
WICHITA        CLOUDY    40  38  93 SE16      29.92F FOG     WCI  31
OMAHA          LGT SNOW  35  33  92 SE13      30.00F FOG     WCI  26
LINCOLN        LGT SNOW  33  32  96 SE5       29.97F VSB 3/4 WCI  29
FALLS CITY     LGT RAIN  35  35 100 SE10      30.01F FOG     WCI  27
LAMONI         SNOW      33  32  96 S7        30.07F VSB 1/2 WCI  27
DES MOINES     LGT RAIN  38  35  89 S9        30.08F WCI  31

$$




USA.gov is the U.S. government's official web portal to all federal, state and local government web resources and services.